Snowfall_Accumulation
0.0 0.0 0.0 0.0 0.0 0.0 0.0 0.0 13.0 0.0 0.0 1.7 11.1 8.3 3.1 0.0 0.0 0.0 0.0 0.0 0.0 0.0 0.0 0.2 0.6 0.2 0.0 0.0 0.0 0.8 0.0 4.2 6.6 0.6 0.0 0.0 0.0 0.0 0.0 6.8 4.7 2.1 3.2 7.2
0.0 0.0 0.0 0.0 0.0 0.0 0.0 0.0 0.0 0.0 0.0 9.8 6.2 0.4 1.4 0.0 0.0 0.0 0.0 0.0 0.0 0.0 0.0 0.0 0.0 0.0 0.0 0.0 0.0 0.0 0.0 9.1 7.8 5.7 0.7 0.0 3.3 0.6 0.8 2.9 5.0 4.7 3.6 4.1
0.0 0.0 0.0 0.0 0.0 0.0 0.0 0.0 11.5 0.0 0.0 0.0 0.0 1.3 1.2 0.2 0.0 0.0 0.0 0.0 0.0 0.0 0.0 0.0 0.0 0.0 0.0 0.0 0.0 0.0 0.0 3.0 8.4 6.5 4.3 5.7 5.1 1.1 1.5 5.5 10.2 1.2 1.6 0.2
0.0 0.0 0.0 0.0 0.0 0.0 0.0 0.0 1.5 0.0 7.2 3.4 0.0 0.2 0.2 0.0 0.0 0.0 0.0 0.0 0.0 0.0 0.2 0.0 0.0 0.0 0.0 0.0 0.0 0.0 0.0 10.2 12.2 3.9 2.3 4.4 4.9 1.5 0.8 6.3 1.8 4.9 0.2 0.2
0.0 0.0 0.0 0.0 0.0 0.0 0.0 0.5 0.0 0.0 0.0 0.0 1.0 0.4 0.1 0.0 0.0 0.0 0.0 0.0 0.0 0.0 0.0 0.0 0.0 0.0 0.0 0.0 0.0 0.0 0.0 9.3 6.5 2.9 1.5 3.4 4.2 1.0 0.6 0.2 0.2 0.1 0.0 0.0
0.0 0.0 0.0 0.0 0.0 0.0 0.0 0.0 0.0 0.0 0.0 0.7 0.2 0.0 0.0 0.0 0.0 0.0 0.0 0.0 0.0 0.0 0.0 0.0 0.0 0.0 0.0 0.0 0.0 0.0 1.2 5.7 8.0 6.5 2.1 3.6 3.1 1.2 0.2 0.0 0.0 0.0 1.0 0.2
0.0 0.0 0.0 0.0 0.0 0.0 0.0 0.0 0.0 0.0 0.1 0.0 0.0 0.0 0.0 0.0 0.0 0.0 0.0 0.0 0.0 0.0 0.0 0.0 0.0 0.0 0.0 0.0 0.0 0.0 0.0 2.5 5.0 7.4 5.3 6.0 0.0 0.0 0.0 0.0 0.0 0.0 0.0 0.0
0.0 0.0 0.0 0.0 0.0 0.0 0.0 0.0 0.0 0.0 0.0 0.0 0.0 0.0 0.0 0.0 0.0 0.0 0.0 0.0 0.0 0.0 0.0 0.0 0.0 0.1 0.0 0.0 0.0 0.0 0.0 0.0 2.9 2.6 2.5 0.0 0.0 0.0 0.0 0.0 0.0 0.0 0.0 0.0
0.0 0.0 0.0 0.0 0.0 0.0 0.0 0.0 0.0 0.0 0.0 0.0 0.0 0.0 0.0 0.0 0.0 0.0 0.0 0.0 0.0 0.0 0.0 0.0 1.7 0.3 0.0 0.2 0.0 0.0 0.0 0.0 0.8 1.3 2.4 0.5 0.0 0.0 0.0 0.0 0.0 0.0 0.0 0.0
0.0 0.0 0.0 0.0 0.0 0.0 0.0 0.0 0.0 0.0 2.1 0.0 0.0 0.0 0.0 0.0 0.0 0.0 0.0 0.0 0.0 0.0 0.0 1.9 1.0 0.3 0.0 0.0 0.0 0.4 0.2 0.2 1.4 1.0 2.1 0.0 0.0 0.0 0.0 0.3 0.1 0.0 0.0 0.0
0.0 0.0 0.0 0.0 0.0 0.0 0.0 0.0 0.0 0.0 0.0 0.0 0.0 0.0 0.0 0.0 0.0 0.0 0.0 0.3 0.0 0.0 0.6 0.9 0.0 0.1 0.0 0.0 0.0 0.0 0.0 0.2 0.2 0.8 1.7 0.0 0.0 0.0 0.0 0.0 0.0 0.0 0.0 0.0
0.0 0.0 0.0 0.0 0.0 0.0 0.0 0.0 0.0 0.0 0.0 0.0 0.0 0.0 0.0 0.0 0.0 0.0 0.0 0.0 1.6 1.2 1.2 0.4 0.0 0.0 0.0 0.0 0.1 0.0 0.0 0.0 0.0 0.0 0.0 0.0 0.0 0.0 0.0 0.0 0.0 0.0 0.0 0.0
0.0 0.0 0.0 0.0 0.0 0.0 0.0 0.0 0.0 0.0 0.4 0.0 0.0 0.0 0.0 0.0 0.0 0.0 0.0 0.0 0.0 1.5 0.6 0.6 0.5 0.4 0.0 0.0 0.0 0.0 0.0 0.0 0.0 0.0 0.0 0.0 0.0 0.0 0.0 0.0 0.0 0.0 0.0 0.0
0.0 0.0 0.0 0.0 0.0 0.0 0.0 0.0 0.0 0.0 0.0 2.6 0.4 0.0 0.0 0.0 0.0 0.0 0.0 0.0 0.0 0.0 0.0 0.4 1.6 1.9 0.0 0.1 0.0 0.0 0.0 0.0 0.0 0.0 0.0 0.0 0.0 0.0 0.0 0.0 0.0 0.0 0.0 0.0
0.0 0.0 0.0 0.0 0.0 0.0 0.0 0.0 0.0 0.0 0.0 3.8 1.1 0.0 0.0 0.0 0.0 0.0 0.0 0.0 0.0 1.0 0.7 1.2 1.8 0.0 0.0 0.0 0.1 0.3 0.0 0.0 0.0 0.0 0.0 0.0 0.0 0.0 0.0 0.0 0.0 0.0 0.0 0.0
0.0 0.0 0.0 0.0 0.0 0.0 0.0 0.0 0.0 0.0 0.0 4.4 10.9 0.0 0.0 0.0 0.0 0.0 0.0 0.0 0.8 0.0 1.9 0.5 0.0 0.0 0.0 4.7 2.1 0.0 0.0 0.0 0.0 0.0 0.0 0.0 0.0 0.0 0.0 0.0 0.0 0.0 0.0 0.0
0.0 0.0 0.0 0.0 0.0 0.0 0.0 4.7 0.0 0.0 0.0 5.4 14.6 7.3 0.0 0.0 0.0 0.0 0.0 0.0 0.0 0.0 2.5 1.9 0.5 1.0 0.0 8.0 2.4 0.0 0.0 0.0 0.0 0.0 0.0 0.0 0.0 0.0 0.0 0.0 0.0 0.0 0.0 0.0
0.0 0.0 0.0 0.0 0.0 0.0 0.0 0.0 0.0 0.0 0.0 4.5 20.1 14.3 3.2 0.0 0.0 2.7 0.0 0.2 0.0 0.1 0.5 0.9 0.3 0.5 1.9 5.3 0.0 0.0 0.0 0.0 0.0 0.0 0.0 0.0 0.0 0.0 0.1 0.0 0.0 0.0 0.0 0.0
0.0 0.0 0.0 0.0 0.0 0.0 0.0 0.0 0.0 0.0 0.0 19.3 14.4 7.3 6.5 0.2 0.1 0.5 1.1 0.0 6.7 2.6 2.5 4.3 0.5 2.1 2.5 0.1 0.0 0.0 0.0 0.0 0.0 0.0 0.0 0.0 0.0 0.0 0.0 0.0 0.0 0.0 0.0 0.0
0.0 0.0 5.1 24.0 1.3 0.0 0.0 0.0 1.0 10.8 17.8 8.2 12.2 2.8 3.5 0.2 0.3 4.1 2.6 4.5 4.7 6.4 2.5 0.8 4.2 0.7 0.1 0.0 0.0 0.0 0.0 0.0 0.0 0.0 0.1 0.0 0.0 0.0 0.0 0.0 0.0 0.0 0.0 0.0
0.0 14.1 15.0 14.5 0.0 6.1 14.4 34.4 36.2 30.5 26.4 15.2 3.9 1.8 2.0 0.1 3.7 5.2 5.8 10.8 7.1 6.7 1.6 1.6 4.4 1.5 0.2 0.0 0.1 0.0 0.0 0.0 0.0 0.0 0.0 0.0 0.0 0.0 0.0 0.0 0.0 0.0 0.0 0.1
5.4 4.1 10.4 11.3 20.8 28.9 36.2 27.5 12.5 12.3 7.5 7.0 4.2 1.4 0.7 2.8 5.3 7.1 10.1 10.2 9.3 4.9 1.1 5.9 1.3 0.0 0.0 0.1 0.3 0.2 0.0 0.0 0.0 0.0 0.0 0.1 0.1 0.0 0.1 1.4 1.0 0.1 0.6 0.4
5.6 17.1 30.5 27.9 25.5 26.7 18.0 8.4 4.8 5.6 3.9 2.8 2.9 3.1 2.0 3.4 5.9 12.7 12.3 12.5 7.2 0.9 4.0 0.1 0.0 0.0 0.2 0.5 0.6 0.1 0.0 0.0 0.0 1.3 1.5 1.2 0.2 0.0 0.4 0.7 1.0 0.7 0.3 0.2
21.0 38.7 35.9 23.0 15.6 6.9 3.5 2.1 2.2 1.1 1.8 0.6 0.8 2.2 4.0 4.8 8.4 8.9 9.9 3.7 4.2 6.1 2.3 0.2 0.3 0.2 0.7 0.9 0.9 0.3 0.1 0.0 0.0 0.0 0.2 0.6 1.0 1.0 0.9 1.0 0.5 0.2 0.6 0.4
36.3 32.3 21.0 11.2 5.7 3.4 3.0 2.1 1.9 2.6 2.5 2.7 0.8 1.7 4.5 6.8 11.4 7.7 5.9 6.9 2.7 0.2 0.0 0.0 0.3 1.3 0.9 2.5 2.0 1.3 0.7 0.5 0.1 0.0 0.4 1.8 0.1 0.0 0.0 0.1 0.0 0.0 0.1 0.2
32.6 27.8 14.7 5.5 2.5 3.4 3.6 3.4 3.8 3.8 3.2 2.7 6.2 9.0 9.7 9.4 8.3 7.9 2.9 4.1 0.8 0.7 1.6 1.6 2.5 3.1 1.7 0.0 0.2 0.0 0.0 0.0 0.4 1.5 3.0 1.5 0.1 0.1 0.0 0.0 0.1 0.0 0.0 0.0
35.4 15.0 6.4 4.3 3.9 4.4 4.9 4.5 4.7 3.5 4.8 7.3 11.1 13.7 6.0 4.2 6.1 1.6 0.2 0.6 0.3 1.1 1.0 0.8 0.4 0.0 0.0 0.0 0.0 0.0 0.0 0.3 0.1 0.1 1.5 1.5 0.9 0.3 0.1 0.0 0.0 0.0 0.0 0.0